User: anonymous   Login
Location: Vancouver
(49.2500°N, 123.1330°W)
Time: 12:22:01
(UTC-07:00)
Language:

Cosmos 676 Rocket - Orbit

View from above orbital plane
View from above orbital plane
View from above satellite
View from above satellite

Ground track
Ground track

The orbit data is extracted from the following two-line orbital elements,

1 07434U 74071B   16121.83530492  .00000108  00000-0  45722-4 0  9995
2 07434  74.0473 251.2476 0021745 264.2103  95.6571 14.36566411177497
Epoch (UTC): 30 April 2016 20:02:50
Eccentricity: 0.0021745
inclination: 74.0473°
perigee height: 754 km
apogee height: 785 km
right ascension of ascending node: 251.2476°
argument of perigee: 264.2103°
revolutions per day: 14.36566411
mean anomaly at epoch: 95.6571°
orbit number at epoch: 17749

The dashed part of the orbit path shows where the satellite is in the earth's shadow,  

DLR